This is the latest recevied weather packets stored in our database for station/object DJ9MA-10. If no packets are shown the sender has not sent any weather packets the latest 10 day(s).
| Time | Temp. | Humidity | Pressure | Rain* | Wind** | Luminosity | Snow |
|---|---|---|---|---|---|---|---|
| 1777532331 | 19.44° C | 30% | 974.5 hPa | - | - | - | - |
| 1777531431 | 19.44° C | 30% | 974.5 hPa | - | - | - | - |
| 1777530531 | 19.44° C | 32% | 974.5 hPa | - | - | - | - |
| 1777529631 | 13.89° C | 36% | 974.7 hPa | - | - | - | - |
| 1777528731 | 10.56° C | 40% | 974.5 hPa | - | - | - | - |
| 1777527831 | 9.44° C | 42% | 974.4 hPa | - | - | - | - |
| 1777526931 | 10° C | 41% | 974.5 hPa | - | - | - | - |
| 1777526031 | 9.44° C | 41% | 974.3 hPa | - | - | - | - |
| 1777525131 | 9.44° C | 41% | 974.3 hPa | - | - | - | - |
| 1777524231 | 9.44° C | 42% | 974.3 hPa | - | - | - | - |
| 1777523331 | 8.89° C | 41% | 974.1 hPa | - | - | - | - |
| 1777522431 | 8.89° C | 41% | 974 hPa | - | - | - | - |
| 1777521531 | 9.44° C | 41% | 974 hPa | - | - | - | - |
| 1777520631 | 9.44° C | 41% | 973.9 hPa | - | - | - | - |
| 1777519730 | 9.44° C | 40% | 973.9 hPa | - | - | - | - |
| 1777518830 | 9.44° C | 40% | 973.9 hPa | - | - | - | - |
| 1777517930 | 10° C | 40% | 973.9 hPa | - | - | - | - |
| 1777517030 | 10° C | 40% | 973.7 hPa | - | - | - | - |
| 1777516130 | 10.56° C | 39% | 973.7 hPa | - | - | - | - |
| 1777515230 | 10.56° C | 39% | 973.6 hPa | - | - | - | - |
| 1777514330 | 10.56° C | 38% | 973.6 hPa | - | - | - | - |
| 1777513430 | 11.11° C | 38% | 973.5 hPa | - | - | - | - |
| 1777512530 | 11.11° C | 39% | 973.6 hPa | - | - | - | - |
| 1777511630 | 11.11° C | 40% | 973.5 hPa | - | - | - | - |
| 1777510730 | 11.67° C | 42% | 973.4 hPa | - | - | - | - |
* Rain since midnight (hover to see other rain measurements)
** Current wind speed in m/s (hover to see current wind gust speed)